Regional Weather Roundup
Issued by NWS

Home | Current Version | Previous Version | Graphics & Text | Print | Product List | Glossary On
Versions: 1 2 3 4 5 6 7 8 9 10 11 12 13 14 15 16 17 18 19 20 21 22 23 24 25 26 27 28 29 30 31 32 33 34 35 36 37 38 39 40 41 42 43 44 45 46 47 48 49 50
000
ASUS43 KMKX 281800
RWRWI

WISCONSIN REGIONAL WEATHER ROUNDUP
NATIONAL WEATHER SERVICE MILWAUKEE/SULLIVAN WI
100 PM CDT FRI AUG 28 2015

NOTE: "FAIR" INDICATES FEW OR NO CLOUDS BELOW 12,000 FEET WITH NO
SIGNIFICANT WEATHER AND/OR OBSTRUCTIONS TO VISIBILITY.

WIZ001-002-006>008-014>016-023>028-281900-
NORTHWEST WISCONSIN

CITY           SKY/WX    TMP DP  RH WIND       PRES   REMARKS
SUPERIOR ARPT  MOSUNNY   76  66  71 SW13G21   29.96F
ASHLAND        MOSUNNY   76  66  71 SW13G21   29.99F
6HR MIN TEMP:  63; 6HR MAX TEMP:  77;

HAYWARD        MOSUNNY   72  63  73 SW8       30.03F
6HR MIN TEMP:  59; 6HR MAX TEMP:  72;

SIREN          MOSUNNY   76  63  64 S10       30.02F
CUMBERLAND     CLOUDY    68  63  83 S7        30.05F
RICE LAKE      CLOUDY    68  62  80 S7        30.07S
CHETEK         CLOUDY   N/A N/A N/A SW3       30.07R
LADYSMITH      CLOUDY    68  62  81 SW6       30.09S
EAU CLAIRE     LGT RAIN  65  63  93 S12       30.04F
MENOMONIE      DRIZZLE   66  64  94 SE7       30.04F
NEW RICHMOND   PTSUNNY   70  64  81 SE5       30.04S
OSCEOLA        PTSUNNY   74  67  78 S10       30.05F
$$

WIZ003>005-009-010-017-018-281900-
NORTH CENTRAL WISCONSIN

CITY           SKY/WX    TMP DP  RH WIND       PRES   REMARKS
MANITOWISH WTR PTSUNNY   69  63  82 SW8       30.06S
ARBOR VITAE    CLOUDY    72  65  78 W8        30.06F
WOODRUFF       CLOUDY    72  65  78 W8        30.06F
RHINELANDER    CLOUDY    71  61  70 W8        30.08F
6HR MIN TEMP:  60; 6HR MAX TEMP:  71;

EAGLE RIVER    CLOUDY    67  58  72 SW9       30.07S
LAND O LAKES   CLOUDY    68  60  77 SW10      30.07S
PHILLIPS       MOSUNNY   68  62  80 SW9       30.06F
6HR MIN TEMP:  58; 6HR MAX TEMP:  68;

TOMAHAWK       CLOUDY    68  60  76 W8        30.08F
MEDFORD        CLOUDY    64  60  90 SW5       30.09F
MERRILL        CLOUDY    68  62  81 SW8       30.09F
$$

WIZ029-030-035-036-043>047-281900-
CENTRAL WISCONSIN

CITY           SKY/WX    TMP DP  RH WIND       PRES   REMARKS
WAUSAU         CLOUDY    67  60  78 SW7       30.08S
6HR MIN TEMP:  60; 6HR MAX TEMP:  68;

MOSINEE        LGT RAIN  64  63  94 SW8       30.11S
MARSHFIELD     LGT RAIN  65  60  84 SW9       30.10S
6HR MIN TEMP:  57; 6HR MAX TEMP:  66; 6HR PCP: TRACE;

STEVENS POINT  DRIZZLE   64  59  84 SW9       30.11S
WAUPACA        CLOUDY    69  61  75 S7        30.12S
WAUTOMA        NOT AVBL
WISC RAPIDS    LGT RAIN  65  60  84 SW7       30.12S
6HR MIN TEMP:  59; 6HR MAX TEMP:  66; 6HR PCP:  0.01;

CAMP DOUGLAS   NOT AVBL
$$

WIZ011>013-019>022-031-037>040-048>050-281900-
NORTHEAST WISCONSIN

CITY           SKY/WX    TMP DP  RH WIND       PRES   REMARKS
ANTIGO         CLOUDY    69  61  74 SW9       30.09F
SHAWANO        CLOUDY    72  61  68 SW5       30.09F
OCONTO         PTSUNNY   73  61  66 SW12      30.08S
STURGEON BAY   PTSUNNY   72  61  68 S13       30.11S
6HR MIN TEMP:  57; 6HR MAX TEMP:  73;

GREEN BAY      CLOUDY    70  61  73 SW10      30.10S
6HR MIN TEMP:  55; 6HR MAX TEMP:  72;

MANITOWOC      NOT AVBL
APPLETON       PTSUNNY   68  57  68 S8        30.09F
CLINTONVILLE   CLOUDY    68  59  73 SW8       30.10S
OSHKOSH        CLOUDY    68  59  73 SW9       30.11F
6HR MIN TEMP:  54; 6HR MAX TEMP:  69;

$$

WIZ032>034-041-042-053>061-281900-
SOUTHWEST WISCONSIN

CITY           SKY/WX    TMP DP  RH WIND       PRES   REMARKS
LA CROSSE      RAIN      65  63  93 SE6       30.07F FOG
6HR MIN TEMP:  64; 6HR MAX TEMP:  66; 6HR PCP:  0.14;

SPARTA         DRIZZLE   64  62  91 CALM      30.11S
VIROQUA        CLOUDY    63  63 100 S5        30.11S
BOSCOBEL       RAIN      65  63  93 CALM      30.11S FOG
6HR MIN TEMP:  60; 6HR MAX TEMP:  66; 6HR PCP:  0.08;

PRAIRIE DU CHI RAIN      63  60  91 E6        30.10F
PLATTEVILLE    CLOUDY    64  62  95 E6        30.11F
$$

WIZ056-057-062-063-064-067-068-281900-
SOUTH CENTRAL WISCONSIN

CITY           SKY/WX    TMP DP  RH WIND       PRES   REMARKS
REEDSBURG      DRIZZLE   63  60  91 CALM      30.11F
BARABOO/DELLS  DRIZZLE   65  58  78 CALM      30.12F
LONE ROCK      NOT AVBL
MINERAL POINT  LGT RAIN  64  61  88 CALM      30.13S
MADISON        LGT RAIN  66  59  78 S5        30.12F
6HR MIN TEMP:  60; 6HR MAX TEMP:  66; 6HR PCP: TRACE;

MIDDLETON      CLOUDY    67  59  76 S3        30.13S
WATERTOWN      CLOUDY    68  64  86 SW5       30.12F
MONROE         CLOUDY    64  59  82 CALM      30.13S
JANESVILLE     CLOUDY    70  61  73 CALM      30.12F
$$

WIZ051-052-058>065-066-070>072-281900-
SOUTHEAST WISCONSIN

CITY           SKY/WX    TMP DP  RH WIND       PRES   REMARKS
MILWAUKEE      CLOUDY    73  59  61 SW10      30.13S
6HR MIN TEMP:  60; 6HR MAX TEMP:  74;

WAUKESHA       LGT RAIN  68  61  77 S5        30.14F
MILWAUKEE/TIMM SUNNY     72  57  60 W7        30.14S
RACINE         CLOUDY    72  59  63 SE6       30.14F
6HR MIN TEMP:  59; 6HR MAX TEMP:  73;

BURLINGTON     CLOUDY    68  60  75 S3        30.14S
KENOSHA        CLOUDY    74  60  61 SW6       30.13F
6HR MIN TEMP:  57; 6HR MAX TEMP:  74;

FOND DU LAC    CLOUDY    69  60  73 SW9       30.12F
6HR MIN TEMP:  54; 6HR MAX TEMP:  71;

SHEBOYGAN      CLOUDY    72  61  68 S8        30.12F
6HR MIN TEMP:  54; 6HR MAX TEMP:  72;

WEST BEND      CLOUDY    70  57  64 SW8       30.13F
JUNEAU         CLOUDY    66  60  79 S6        30.14F
$$

LSZ147-162-281900-
LAKE SUPERIOR

STATION/POSITION TIME  TEMP    WIND        PRES    WAVE
                       AIR SEA DIR/SP/G            HT/PER
                 (UTC) (F)     (DEG/KT/KT) (MB)    (FT/S)
W MID LAKE BUOY  1650   58 56  200/  8/  8 1015.5R   0
DEVILS ISLAND    1700   60     220/  4/  6 1015.7R
PORT WING        1740   73     220/ 10/ 17 1014.6F
SAXON HARBOR     1740   74     200/  6/ 10 1015.6R
$$

LMZ867-665-643>646-281900-
LAKE MICHIGAN

STATION/POSITION TIME  TEMP    WIND        PRES    WAVE
                       AIR SEA DIR/SP/G            HT/PER
                 (UTC) (F)     (DEG/KT/KT) (MB)    (FT/S)
CHAMBERS ISLAND  1700   67     190/  9/ 14 1018.6F
S GREEN BAY BUOY 1730   66 63  220/ 10/ 14 1020.3F
N MID LAKE BUOY  1650   63 64  200/ 16/ 19 1019.1F   3/ 4
NORTHPORT PIER   1700   66     150/  7/ 11 1019.0
SISTER BAY       1749   73     150/ 11/ 14   N/A
ALGOMA LAKESHORE 1744          210/ 11/ 12   N/A
KEWAUNEE LAKESHO 1700   53     170/ 13/ 15 1018.7F
SHEBOYGAN LAKESH 1700   58     160/ 12/ 12 1020.5F
PORT WASHINGTON  1700   59      CALM  /  1 1021.0F
ATWATER BUOY     1700   56 50  180/  6/  6 1021.8S
MILWAUKEE LAKESH 1700   59     170/  1/  3   N/A
S MID LAKE BUOY  1650   67 68  170/  8/ 10 1020.7F   1/ 4
KENOSHA   LAKESH 1700   60     170/  9/ 10 1020.3S
$$

TC  - TEMPERATURE IN CELSIUS
VSB - VISIBILITY IN STATUTE MILES
WCI - WIND CHILL INDEX
HX  - HEAT INDEX



USA.gov is the U.S. government's official web portal to all federal, state and local government web resources and services.